sat.trackr.live / text

‹ back to catalog

STARLINK-32889

NORAD 62961 · 2025-029P

PAYLOAD ACTIVE UNKNOWN

§ Identity

Operator
Country
US
Launch date
2025-02-11
Launch site
AFWTR
Launch vehicle
Mass (kg)
RCS (m²)

Purposes: comms

External: N2YO · Heavens-Above · Gunter

§ Orbital elements

Epoch: 2026-09-21T17:30:59.309568Z

Period
93.85 min
Inclination
53.1592°
Eccentricity
0.0001014
Mean motion
15.34403616 rev/d
Perigee alt
462.0 km
Apogee alt
463.4 km
Semi-major
6,840.8 km
B*
4.8140e-4
RAAN
39.6420°
Arg perigee
79.3210°
Mean anomaly
280.7907°
Rev number
9,136

§ Raw data

STARLINK-328891 62961U 25029P   26264.72985312  .00015925  00000+0  48140-3 0  99902 62961  53.1592  39.6420 0001014  79.3210 280.7907 15.34403616 91368

JSON: /api/v1/satellites/62961 · /tle

For live sub-satellite position, see the globe view (requires WebGL).

§ Visibility from observer

Set your observer location to see the next 7 days of passes ≥ 10°. The values pass through the URL so the page stays shareable.

No JS? Fill the form by hand. The geolocation button needs JavaScript.